This is the latest recevied weather packets stored in our database for station/object YF9UAG-16. If no packets are shown the sender has not sent any weather packets the latest 1 day(s).
| Time | Temp. | Humidity | Pressure | Rain* | Wind** | Luminosity | Snow |
|---|---|---|---|---|---|---|---|
| 1778052706 | 30° C | 61% | 1006 hPa | - | 0 m/s | 0 W/m² | - |
| 1778052384 | 30.56° C | 64% | 1006 hPa | - | 0 m/s | 0 W/m² | - |
| 1778052062 | 30.56° C | 62% | 1006 hPa | - | 0 m/s | 0 W/m² | - |
| 1778051740 | 30.56° C | 60% | 1006 hPa | - | 0 m/s | 0 W/m² | - |
| 1778051418 | 30.56° C | 60% | 1006 hPa | - | 0 m/s | 0 W/m² | - |
| 1778051096 | 30.56° C | 56% | 1006 hPa | - | 0 m/s | 0 W/m² | - |
| 1778050775 | 31.11° C | 57% | 1005 hPa | - | 0 m/s | 0 W/m² | - |
| 1778050452 | 31.11° C | 52% | 1005 hPa | - | 0 m/s | 0 W/m² | - |
| 1778050131 | 32.22° C | 53% | 1005 hPa | - | 0 m/s | 0 W/m² | - |
| 1778049809 | 31.67° C | 47% | 1005 hPa | - | 0 m/s | 0 W/m² | - |
| 1778049486 | 33.33° C | 46% | 1005 hPa | - | 0 m/s | 0 W/m² | - |
| 1778049164 | 33.33° C | 45% | 1005 hPa | - | 0 m/s | 0 W/m² | - |
| 1778048842 | 34.44° C | 40% | 1005 hPa | - | 0 m/s | 0 W/m² | - |
| 1778048520 | 34.44° C | 35% | 1005 hPa | - | 0 m/s | 0 W/m² | - |
| 1778048198 | 36.11° C | 33% | 1005 hPa | - | 0 m/s | 0 W/m² | - |
| 1778047876 | 38.89° C | 29% | 1005 hPa | - | 0 m/s | 0 W/m² | - |
| 1778047554 | 38.89° C | 28% | 1005 hPa | - | 0 m/s | 0 W/m² | - |
| 1778047232 | 38.33° C | 29% | 1005 hPa | - | 0 m/s | 0 W/m² | - |
| 1778046910 | 39.44° C | 28% | 1005 hPa | - | 0 m/s | 0 W/m² | - |
| 1778046588 | 39.44° C | 28% | 1005 hPa | - | 0 m/s | 0 W/m² | - |
| 1778046266 | 38.89° C | 29% | 1005 hPa | - | 0 m/s | 0 W/m² | - |
| 1778045944 | 38.33° C | 30% | 1005 hPa | - | 0 m/s | 0 W/m² | - |
| 1778045622 | 39.44° C | 29% | 1005 hPa | - | 0 m/s | 0 W/m² | - |
| 1778045300 | 39.44° C | 29% | 1005 hPa | - | 0 m/s | 0 W/m² | - |
| 1778044978 | 40° C | 29% | 1005 hPa | - | 0 m/s | 0 W/m² | - |
* Rain since midnight (hover to see other rain measurements)
** Current wind speed in m/s (hover to see current wind gust speed)